QPF
0.03 0.05 0.06 0.08 0.07 0.07 0.07 0.06 0.05 0.05 0.04 0.06 0.06 0.07 0.08 0.07 0.06 0.05 0.05 0.05 0.05 0.05 0.07 0.08 0.09 0.10 0.09 0.11 0.13 0.13 0.13 0.12 0.13 0.13 0.12 0.10 0.09 0.09 0.10 0.10 0.09 0.08 0.06
0.03 0.05 0.07 0.11 0.10 0.08 0.06 0.05 0.04 0.03 0.04 0.06 0.11 0.09 0.06 0.04 0.04 0.04 0.04 0.05 0.06 0.06 0.07 0.07 0.08 0.10 0.10 0.10 0.12 0.14 0.14 0.15 0.15 0.16 0.15 0.12 0.10 0.09 0.08 0.09 0.09 0.08 0.06
0.05 0.06 0.07 0.07 0.05 0.05 0.05 0.05 0.04 0.05 0.04 0.06 0.07 0.07 0.05 0.03 0.03 0.03 0.03 0.04 0.07 0.08 0.08 0.07 0.08 0.10 0.12 0.12 0.11 0.12 0.14 0.16 0.16 0.15 0.16 0.14 0.12 0.10 0.08 0.07 0.08 0.07 0.06
0.08 0.09 0.08 0.06 0.04 0.06 0.06 0.04 0.03 0.04 0.04 0.05 0.06 0.05 0.05 0.05 0.04 0.04 0.03 0.04 0.06 0.07 0.07 0.06 0.07 0.08 0.08 0.07 0.07 0.10 0.14 0.15 0.15 0.14 0.14 0.13 0.14 0.16 0.14 0.10 0.07 0.06 0.05
0.06 0.07 0.06 0.05 0.05 0.06 0.07 0.05 0.04 0.03 0.03 0.03 0.05 0.05 0.05 0.04 0.04 0.04 0.04 0.05 0.05 0.05 0.05 0.04 0.04 0.04 0.04 0.06 0.07 0.09 0.11 0.12 0.11 0.12 0.14 0.14 0.13 0.14 0.14 0.13 0.09 0.06 0.04
0.04 0.04 0.04 0.04 0.04 0.06 0.07 0.05 0.04 0.04 0.04 0.03 0.03 0.05 0.05 0.06 0.06 0.05 0.04 0.04 0.04 0.03 0.02 0.02 0.02 0.02 0.02 0.04 0.06 0.06 0.08 0.09 0.10 0.11 0.13 0.15 0.15 0.14 0.12 0.11 0.12 0.10 0.06
0.04 0.03 0.04 0.05 0.06 0.05 0.05 0.04 0.04 0.04 0.04 0.04 0.04 0.05 0.06 0.07 0.07 0.06 0.04 0.03 0.02 0.02 0.01 0.01 0.01 0.01 0.02 0.03 0.05 0.05 0.05 0.06 0.07 0.08 0.10 0.12 0.12 0.12 0.12 0.11 0.11 0.10 0.09
0.02 0.02 0.03 0.04 0.05 0.05 0.04 0.04 0.04 0.04 0.04 0.04 0.04 0.04 0.05 0.06 0.06 0.05 0.03 0.02 0.01 0.01 0.01 0.01 0.01 0.01 0.02 0.02 0.05 0.07 0.06 0.05 0.05 0.06 0.08 0.09 0.09 0.09 0.09 0.08 0.09 0.08 0.08
0.01 0.03 0.04 0.04 0.04 0.05 0.05 0.04 0.03 0.04 0.04 0.03 0.03 0.03 0.03 0.04 0.04 0.03 0.02 0.02 0.02 0.01 0.01 0.00 0.01 0.01 0.01 0.02 0.03 0.06 0.09 0.09 0.08 0.08 0.09 0.09 0.07 0.08 0.09 0.09 0.09 0.08 0.07
0.02 0.04 0.07 0.07 0.06 0.05 0.04 0.03 0.03 0.04 0.03 0.03 0.03 0.03 0.02 0.03 0.04 0.04 0.03 0.01 0.01 0.01 0.01 0.01 0.01 0.01 0.01 0.01 0.03 0.05 0.07 0.09 0.10 0.11 0.10 0.10 0.07 0.07 0.07 0.09 0.09 0.08 0.07
0.03 0.06 0.05 0.03 0.04 0.03 0.02 0.03 0.04 0.04 0.04 0.04 0.03 0.02 0.01 0.02 0.03 0.03 0.03 0.01 0.01 0.01 0.01 0.01 0.01 0.01 0.01 0.01 0.01 0.02 0.03 0.06 0.08 0.11 0.13 0.14 0.10 0.08 0.08 0.08 0.08 0.08 0.08
0.02 0.05 0.03 0.03 0.02 0.02 0.02 0.03 0.04 0.04 0.04 0.04 0.02 0.01 0.02 0.02 0.03 0.03 0.03 0.02 0.02 0.01 0.01 0.01 0.01 0.01 0.00 0.01 0.01 0.02 0.03 0.04 0.07 0.11 0.13 0.15 0.13 0.10 0.10 0.09 0.09 0.08 0.08
0.02 0.03 0.03 0.03 0.03 0.03 0.03 0.03 0.03 0.04 0.04 0.03 0.02 0.02 0.03 0.04 0.05 0.05 0.04 0.03 0.02 0.01 0.01 0.01 0.01 0.01 0.01 0.01 0.01 0.02 0.02 0.03 0.04 0.07 0.10 0.12 0.12 0.09 0.08 0.08 0.08 0.07 0.06
0.02 0.02 0.03 0.04 0.04 0.04 0.04 0.03 0.04 0.04 0.04 0.02 0.01 0.01 0.01 0.02 0.04 0.05 0.04 0.02 0.01 0.01 0.01 0.01 0.01 0.01 0.01 0.01 0.01 0.01 0.02 0.02 0.02 0.04 0.07 0.11 0.14 0.10 0.06 0.07 0.09 0.08 0.06
0.02 0.02 0.03 0.05 0.05 0.06 0.05 0.04 0.04 0.04 0.04 0.03 0.01 0.00 0.01 0.01 0.01 0.02 0.02 0.01 0.01 0.01 0.01 0.02 0.02 0.01 0.01 0.01 0.00 0.01 0.01 0.02 0.02 0.03 0.04 0.07 0.12 0.15 0.09 0.07 0.08 0.08 0.06
0.02 0.03 0.04 0.04 0.04 0.06 0.05 0.05 0.04 0.04 0.04 0.03 0.01 0.01 0.01 0.01 0.01 0.01 0.02 0.02 0.01 0.01 0.01 0.01 0.01 0.01 0.01 0.01 0.01 0.01 0.01 0.02 0.02 0.02 0.03 0.03 0.04 0.07 0.08 0.05 0.05 0.06 0.06
0.02 0.03 0.04 0.04 0.05 0.06 0.05 0.04 0.04 0.04 0.04 0.03 0.01 0.01 0.01 0.01 0.01 0.01 0.02 0.02 0.02 0.02 0.02 0.01 0.01 0.02 0.02 0.01 0.01 0.01 0.01 0.01 0.01 0.02 0.02 0.02 0.04 0.03 0.05 0.05 0.03 0.04 0.05
0.03 0.03 0.04 0.05 0.04 0.05 0.06 0.04 0.03 0.03 0.03 0.02 0.01 0.01 0.01 0.02 0.02 0.02 0.03 0.02 0.02 0.02 0.02 0.02 0.03 0.03 0.02 0.01 0.01 0.00 0.01 0.02 0.01 0.01 0.02 0.02 0.03 0.04 0.04 0.05 0.04 0.03 0.04
0.08 0.06 0.06 0.06 0.05 0.04 0.03 0.03 0.03 0.03 0.02 0.01 0.01 0.01 0.01 0.03 0.03 0.03 0.03 0.02 0.02 0.01 0.02 0.02 0.02 0.02 0.02 0.01 0.01 0.01 0.01 0.02 0.01 0.01 0.01 0.02 0.02 0.03 0.06 0.06 0.05 0.04 0.05
0.10 0.10 0.07 0.06 0.06 0.04 0.03 0.03 0.02 0.03 0.03 0.02 0.01 0.01 0.01 0.02 0.04 0.05 0.04 0.03 0.02 0.01 0.01 0.01 0.01 0.02 0.02 0.01 0.01 0.01 0.01 0.02 0.02 0.02 0.02 0.03 0.03 0.02 0.03 0.06 0.06 0.05 0.06
0.07 0.10 0.10 0.07 0.05 0.04 0.04 0.03 0.03 0.02 0.02 0.01 0.01 0.02 0.02 0.02 0.03 0.04 0.04 0.02 0.01 0.01 0.01 0.01 0.02 0.02 0.02 0.02 0.02 0.02 0.02 0.02 0.02 0.03 0.03 0.03 0.03 0.02 0.01 0.03 0.04 0.04 0.04
0.03 0.07 0.09 0.08 0.05 0.04 0.04 0.03 0.03 0.02 0.01 0.01 0.01 0.02 0.02 0.03 0.02 0.02 0.02 0.02 0.01 0.02 0.02 0.02 0.02 0.02 0.02 0.02 0.02 0.02 0.02 0.02 0.02 0.03 0.03 0.03 0.02 0.02 0.02 0.02 0.02 0.02 0.03
0.03 0.04 0.05 0.05 0.04 0.04 0.04 0.03 0.03 0.01 0.00 0.01 0.02 0.02 0.03 0.03 0.03 0.03 0.02 0.01 0.01 0.02 0.01 0.01 0.02 0.02 0.03 0.03 0.03 0.02 0.02 0.02 0.02 0.02 0.01 0.01 0.03 0.04 0.03 0.02 0.02 0.02 0.02
0.04 0.03 0.03 0.03 0.03 0.03 0.02 0.03 0.03 0.01 0.01 0.01 0.02 0.02 0.02 0.02 0.02 0.02 0.02 0.01 0.01 0.02 0.01 0.01 0.02 0.02 0.02 0.02 0.02 0.01 0.01 0.01 0.01 0.01 0.01 0.01 0.02 0.03 0.04 0.03 0.02 0.02 0.03
0.04 0.03 0.02 0.02 0.03 0.02 0.02 0.02 0.02 0.01 0.01 0.02 0.02 0.01 0.01 0.02 0.02 0.01 0.01 0.00 0.01 0.02 0.01 0.01 0.01 0.01 0.01 0.01 0.00 0.00 0.00 0.00 0.00 0.00 0.01 0.02 0.02 0.03 0.04 0.03 0.03 0.03 0.04
0.02 0.01 0.01 0.01 0.02 0.01 0.01 0.01 0.01 0.02 0.01 0.01 0.01 0.01 0.01 0.01 0.01 0.01 0.01 0.01 0.01 0.01 0.01 0.01 0.01 0.01 0.00 0.00 0.00 0.00 0.00 0.00 0.00 0.01 0.01 0.02 0.02 0.02 0.03 0.03 0.03 0.04 0.04
MSLP
1008.43 1008.34 1008.32 1008.37 1008.50 1008.72 1009.04 1009.45 1009.94 1010.47 1011.01 1011.53 1011.99 1012.38 1012.67 1012.87 1012.97 1013.00 1012.95 1012.85 1012.69 1012.50 1012.29 1012.07 1011.86 1011.68 1011.54 1011.48 1011.47 1011.54 1011.66 1011.82 1011.98 1012.14 1012.28 1012.38 1012.44 1012.48 1012.50 1012.51 1012.52 1012.55 1012.59
1008.29 1008.19 1008.16 1008.20 1008.33 1008.54 1008.84 1009.22 1009.66 1010.14 1010.62 1011.07 1011.48 1011.80 1012.04 1012.20 1012.28 1012.29 1012.24 1012.15 1012.03 1011.88 1011.71 1011.54 1011.37 1011.23 1011.12 1011.06 1011.05 1011.10 1011.21 1011.36 1011.53 1011.71 1011.88 1012.04 1012.18 1012.29 1012.38 1012.45 1012.51 1012.55 1012.58
1008.17 1008.06 1008.04 1008.10 1008.23 1008.44 1008.73 1009.08 1009.48 1009.90 1010.32 1010.70 1011.04 1011.30 1011.50 1011.62 1011.67 1011.68 1011.65 1011.59 1011.51 1011.41 1011.31 1011.19 1011.07 1010.96 1010.87 1010.80 1010.78 1010.81 1010.89 1011.01 1011.17 1011.36 1011.57 1011.78 1011.98 1012.17 1012.33 1012.46 1012.55 1012.61 1012.63
1008.07 1007.97 1007.97 1008.05 1008.22 1008.44 1008.73 1009.07 1009.43 1009.81 1010.17 1010.50 1010.78 1011.00 1011.16 1011.26 1011.31 1011.33 1011.33 1011.31 1011.28 1011.24 1011.18 1011.11 1011.03 1010.94 1010.85 1010.78 1010.73 1010.71 1010.75 1010.83 1010.97 1011.16 1011.38 1011.62 1011.88 1012.12 1012.33 1012.50 1012.62 1012.69 1012.69
1008.04 1007.95 1007.97 1008.10 1008.29 1008.55 1008.85 1009.19 1009.53 1009.88 1010.20 1010.50 1010.74 1010.94 1011.09 1011.19 1011.26 1011.30 1011.33 1011.35 1011.36 1011.37 1011.35 1011.31 1011.25 1011.17 1011.07 1010.97 1010.88 1010.82 1010.80 1010.84 1010.95 1011.11 1011.32 1011.58 1011.85 1012.12 1012.35 1012.55 1012.67 1012.73 1012.71
1008.13 1008.05 1008.10 1008.26 1008.49 1008.77 1009.09 1009.43 1009.78 1010.11 1010.42 1010.69 1010.93 1011.12 1011.28 1011.39 1011.48 1011.56 1011.61 1011.67 1011.71 1011.73 1011.74 1011.71 1011.66 1011.57 1011.45 1011.32 1011.19 1011.08 1011.01 1011.00 1011.06 1011.18 1011.37 1011.60 1011.86 1012.12 1012.36 1012.54 1012.65 1012.68 1012.64
1008.41 1008.33 1008.40 1008.57 1008.82 1009.12 1009.45 1009.79 1010.13 1010.46 1010.76 1011.03 1011.27 1011.48 1011.65 1011.79 1011.90 1011.99 1012.06 1012.13 1012.17 1012.20 1012.21 1012.18 1012.11 1012.01 1011.87 1011.71 1011.55 1011.41 1011.29 1011.23 1011.24 1011.31 1011.45 1011.64 1011.86 1012.08 1012.28 1012.43 1012.50 1012.50 1012.42
1008.92 1008.83 1008.88 1009.05 1009.30 1009.59 1009.91 1010.24 1010.56 1010.88 1011.17 1011.44 1011.68 1011.90 1012.08 1012.23 1012.35 1012.44 1012.51 1012.57 1012.60 1012.61 1012.60 1012.55 1012.47 1012.36 1012.21 1012.05 1011.87 1011.70 1011.55 1011.45 1011.41 1011.43 1011.50 1011.63 1011.79 1011.95 1012.09 1012.18 1012.21 1012.16 1012.05
1009.65 1009.53 1009.55 1009.69 1009.90 1010.16 1010.44 1010.73 1011.02 1011.30 1011.57 1011.83 1012.06 1012.27 1012.44 1012.59 1012.70 1012.78 1012.83 1012.85 1012.85 1012.84 1012.80 1012.73 1012.64 1012.53 1012.39 1012.23 1012.06 1011.88 1011.72 1011.59 1011.50 1011.46 1011.47 1011.53 1011.60 1011.69 1011.76 1011.79 1011.77 1011.69 1011.56
1010.55 1010.38 1010.35 1010.43 1010.58 1010.77 1010.99 1011.22 1011.45 1011.68 1011.91 1012.13 1012.33 1012.51 1012.67 1012.79 1012.87 1012.91 1012.92 1012.90 1012.87 1012.81 1012.75 1012.67 1012.59 1012.49 1012.37 1012.23 1012.08 1011.92 1011.76 1011.61 1011.49 1011.39 1011.34 1011.31 1011.31 1011.32 1011.32 1011.30 1011.24 1011.13 1010.98
1011.52 1011.30 1011.20 1011.19 1011.25 1011.36 1011.50 1011.64 1011.80 1011.97 1012.14 1012.30 1012.46 1012.61 1012.72 1012.80 1012.84 1012.84 1012.80 1012.74 1012.66 1012.58 1012.49 1012.42 1012.34 1012.27 1012.19 1012.09 1011.97 1011.84 1011.69 1011.52 1011.37 1011.23 1011.11 1011.01 1010.94 1010.88 1010.83 1010.76 1010.67 1010.55 1010.40
1012.45 1012.15 1011.97 1011.88 1011.85 1011.86 1011.91 1011.97 1012.05 1012.15 1012.25 1012.37 1012.48 1012.57 1012.65 1012.68 1012.68 1012.63 1012.56 1012.45 1012.34 1012.24 1012.15 1012.08 1012.02 1011.98 1011.94 1011.88 1011.80 1011.69 1011.55 1011.38 1011.19 1011.01 1010.83 1010.67 1010.54 1010.43 1010.33 1010.24 1010.13 1010.01 1009.86
1013.20 1012.84 1012.58 1012.40 1012.29 1012.22 1012.18 1012.17 1012.19 1012.22 1012.28 1012.35 1012.42 1012.48 1012.52 1012.52 1012.48 1012.40 1012.30 1012.17 1012.04 1011.92 1011.83 1011.77 1011.74 1011.72 1011.71 1011.69 1011.64 1011.54 1011.40 1011.22 1011.00 1010.78 1010.55 1010.35 1010.17 1010.02 1009.90 1009.79 1009.68 1009.56 1009.43
1013.71 1013.29 1012.97 1012.72 1012.54 1012.40 1012.31 1012.25 1012.22 1012.22 1012.25 1012.29 1012.34 1012.39 1012.41 1012.39 1012.34 1012.25 1012.12 1011.98 1011.84 1011.72 1011.63 1011.58 1011.56 1011.57 1011.58 1011.57 1011.53 1011.43 1011.28 1011.08 1010.83 1010.57 1010.31 1010.07 1009.86 1009.69 1009.56 1009.45 1009.34 1009.23 1009.10
1013.97 1013.50 1013.13 1012.83 1012.61 1012.44 1012.31 1012.23 1012.18 1012.18 1012.20 1012.24 1012.30 1012.34 1012.37 1012.36 1012.31 1012.21 1012.09 1011.95 1011.80 1011.68 1011.59 1011.54 1011.52 1011.53 1011.53 1011.52 1011.47 1011.36 1011.19 1010.96 1010.69 1010.40 1010.11 1009.85 1009.62 1009.45 1009.31 1009.20 1009.10 1009.00 1008.86
1014.01 1013.51 1013.11 1012.79 1012.54 1012.36 1012.23 1012.15 1012.11 1012.12 1012.16 1012.23 1012.30 1012.37 1012.42 1012.42 1012.38 1012.30 1012.18 1012.04 1011.89 1011.76 1011.66 1011.60 1011.57 1011.55 1011.54 1011.51 1011.43 1011.29 1011.10 1010.84 1010.55 1010.24 1009.93 1009.66 1009.43 1009.25 1009.12 1009.02 1008.92 1008.82 1008.67
1013.91 1013.40 1012.99 1012.66 1012.41 1012.23 1012.12 1012.06 1012.05 1012.08 1012.16 1012.25 1012.36 1012.46 1012.53 1012.56 1012.53 1012.46 1012.34 1012.19 1012.04 1011.89 1011.77 1011.67 1011.61 1011.57 1011.52 1011.45 1011.34 1011.18 1010.96 1010.68 1010.37 1010.05 1009.74 1009.46 1009.24 1009.06 1008.94 1008.84 1008.75 1008.63 1008.47
1013.77 1013.26 1012.85 1012.53 1012.29 1012.13 1012.03 1012.00 1012.02 1012.08 1012.19 1012.31 1012.45 1012.57 1012.65 1012.69 1012.68 1012.60 1012.47 1012.31 1012.13 1011.96 1011.80 1011.67 1011.57 1011.49 1011.41 1011.30 1011.16 1010.97 1010.73 1010.44 1010.12 1009.79 1009.48 1009.21 1008.99 1008.83 1008.71 1008.61 1008.51 1008.38 1008.20
1013.66 1013.17 1012.77 1012.46 1012.24 1012.09 1012.01 1011.99 1012.03 1012.12 1012.25 1012.39 1012.53 1012.66 1012.75 1012.78 1012.75 1012.66 1012.51 1012.32 1012.11 1011.90 1011.70 1011.54 1011.40 1011.28 1011.16 1011.02 1010.86 1010.65 1010.40 1010.10 1009.77 1009.45 1009.14 1008.87 1008.66 1008.50 1008.37 1008.27 1008.16 1008.02 1007.81
1013.60 1013.13 1012.75 1012.45 1012.24 1012.11 1012.05 1012.04 1012.10 1012.19 1012.32 1012.46 1012.60 1012.71 1012.78 1012.79 1012.73 1012.61 1012.42 1012.19 1011.94 1011.70 1011.47 1011.26 1011.09 1010.94 1010.80 1010.65 1010.47 1010.25 1009.99 1009.69 1009.36 1009.03 1008.71 1008.44 1008.22 1008.05 1007.91 1007.80 1007.68 1007.52 1007.30
1013.57 1013.12 1012.76 1012.48 1012.29 1012.17 1012.12 1012.12 1012.18 1012.27 1012.39 1012.52 1012.64 1012.72 1012.75 1012.72 1012.62 1012.45 1012.22 1011.95 1011.67 1011.39 1011.13 1010.90 1010.72 1010.55 1010.40 1010.24 1010.06 1009.83 1009.56 1009.24 1008.90 1008.55 1008.22 1007.92 1007.67 1007.48 1007.32 1007.19 1007.05 1006.88 1006.66
1013.51 1013.08 1012.75 1012.49 1012.32 1012.21 1012.17 1012.19 1012.25 1012.34 1012.45 1012.56 1012.64 1012.69 1012.68 1012.60 1012.45 1012.23 1011.96 1011.66 1011.35 1011.04 1010.77 1010.54 1010.35 1010.18 1010.03 1009.87 1009.68 1009.44 1009.16 1008.82 1008.45 1008.06 1007.69 1007.34 1007.05 1006.81 1006.62 1006.45 1006.30 1006.12 1005.90
1013.35 1012.95 1012.64 1012.41 1012.26 1012.18 1012.16 1012.20 1012.27 1012.37 1012.47 1012.56 1012.62 1012.63 1012.58 1012.45 1012.26 1012.00 1011.70 1011.37 1011.04 1010.74 1010.46 1010.24 1010.05 1009.90 1009.75 1009.59 1009.39 1009.14 1008.82 1008.45 1008.03 1007.58 1007.14 1006.73 1006.37 1006.07 1005.82 1005.63 1005.45 1005.27 1005.06
1013.03 1012.65 1012.37 1012.18 1012.07 1012.03 1012.05 1012.12 1012.22 1012.33 1012.44 1012.53 1012.57 1012.55 1012.47 1012.31 1012.08 1011.80 1011.47 1011.13 1010.81 1010.50 1010.25 1010.04 1009.87 1009.72 1009.58 1009.42 1009.20 1008.92 1008.56 1008.14 1007.65 1007.13 1006.61 1006.12 1005.68 1005.30 1005.00 1004.75 1004.55 1004.36 1004.17
1012.53 1012.19 1011.94 1011.79 1011.73 1011.74 1011.82 1011.93 1012.08 1012.23 1012.35 1012.45 1012.48 1012.45 1012.35 1012.17 1011.92 1011.62 1011.29 1010.95 1010.63 1010.35 1010.11 1009.92 1009.77 1009.63 1009.49 1009.31 1009.07 1008.76 1008.35 1007.86 1007.30 1006.70 1006.10 1005.52 1004.99 1004.54 1004.18 1003.89 1003.66 1003.46 1003.27
1011.88 1011.57 1011.36 1011.26 1011.26 1011.33 1011.47 1011.64 1011.84 1012.03 1012.19 1012.30 1012.34 1012.31 1012.19 1012.00 1011.74 1011.44 1011.11 1010.79 1010.49 1010.22 1010.00 1009.83 1009.69 1009.55 1009.41 1009.21 1008.94 1008.58 1008.12 1007.57 1006.95 1006.28 1005.60 1004.95 1004.36 1003.85 1003.43 1003.09 1002.83 1002.63 1002.44
Thickness
5749 5746 5742 5740 5736 5733 5731 5729 5725 5722 5719 5715 5711 5708 5705 5702 5701 5698 5694 5690 5688 5685 5683 5682 5680 5678 5676 5673 5671 5668 5667 5666 5665 5664 5665 5667 5668 5666 5665 5664 5664 5665 5665
5741 5738 5735 5733 5729 5726 5725 5723 5720 5718 5715 5711 5707 5704 5701 5699 5697 5692 5688 5685 5682 5680 5679 5676 5674 5672 5670 5667 5665 5661 5659 5659 5658 5655 5654 5655 5658 5658 5659 5657 5657 5658 5660
5736 5731 5728 5726 5724 5720 5718 5717 5714 5712 5709 5706 5703 5700 5696 5694 5691 5687 5684 5681 5677 5675 5672 5670 5668 5666 5664 5661 5658 5656 5653 5650 5650 5649 5645 5643 5645 5648 5652 5651 5651 5651 5652
5733 5728 5725 5721 5719 5716 5714 5711 5708 5705 5702 5700 5699 5696 5691 5688 5685 5683 5680 5676 5673 5670 5667 5665 5662 5659 5658 5655 5653 5651 5647 5644 5643 5642 5640 5639 5638 5635 5639 5643 5644 5644 5644
5729 5724 5721 5718 5714 5712 5709 5704 5701 5699 5696 5694 5693 5690 5688 5684 5682 5678 5674 5671 5669 5665 5662 5659 5656 5654 5652 5649 5646 5644 5641 5639 5637 5636 5635 5634 5633 5632 5630 5632 5635 5637 5638
5725 5721 5718 5714 5710 5707 5703 5699 5695 5692 5691 5689 5687 5684 5681 5678 5675 5671 5669 5667 5665 5661 5657 5654 5651 5648 5646 5643 5641 5639 5637 5634 5631 5630 5629 5628 5627 5627 5626 5626 5627 5628 5631
5720 5717 5713 5709 5705 5701 5697 5694 5690 5686 5685 5683 5681 5678 5675 5673 5669 5666 5663 5661 5659 5656 5651 5649 5645 5643 5640 5638 5636 5634 5631 5629 5626 5625 5624 5624 5624 5623 5622 5621 5622 5622 5625
5715 5712 5709 5705 5700 5696 5692 5688 5684 5681 5679 5677 5674 5672 5669 5668 5665 5660 5658 5655 5653 5650 5645 5642 5640 5637 5635 5633 5631 5630 5627 5625 5622 5621 5619 5618 5619 5619 5618 5616 5616 5616 5619
5711 5707 5704 5699 5694 5690 5686 5683 5679 5676 5674 5672 5669 5665 5663 5660 5657 5654 5652 5650 5646 5644 5640 5637 5635 5633 5630 5628 5626 5625 5622 5620 5618 5617 5615 5615 5615 5615 5614 5613 5613 5611 5612
5705 5701 5697 5694 5690 5686 5682 5677 5675 5672 5669 5667 5664 5661 5657 5654 5651 5649 5646 5643 5640 5637 5634 5632 5630 5628 5626 5624 5622 5621 5618 5615 5613 5611 5609 5609 5610 5609 5609 5609 5609 5608 5608
5698 5694 5691 5688 5685 5681 5677 5673 5670 5667 5664 5662 5658 5655 5652 5649 5646 5643 5640 5638 5635 5632 5629 5627 5625 5623 5622 5619 5617 5615 5613 5610 5608 5606 5605 5603 5603 5604 5604 5604 5604 5604 5605
5692 5689 5685 5682 5679 5676 5672 5669 5666 5663 5660 5657 5654 5650 5647 5644 5642 5639 5636 5633 5630 5627 5625 5623 5621 5619 5617 5614 5612 5610 5608 5606 5603 5601 5600 5599 5600 5599 5599 5599 5599 5599 5600
5685 5682 5678 5676 5673 5670 5667 5664 5662 5658 5656 5653 5650 5646 5643 5640 5637 5634 5632 5629 5626 5624 5622 5619 5616 5614 5612 5610 5608 5607 5605 5602 5600 5598 5597 5596 5595 5595 5595 5594 5595 5596 5597
5679 5676 5673 5670 5669 5665 5662 5660 5657 5654 5651 5648 5646 5642 5639 5636 5634 5631 5629 5626 5623 5621 5618 5615 5613 5610 5609 5606 5604 5603 5601 5599 5597 5596 5594 5593 5592 5591 5591 5591 5591 5591 5592
5673 5670 5667 5665 5662 5660 5656 5654 5652 5650 5648 5644 5642 5639 5637 5634 5631 5628 5626 5623 5620 5618 5615 5612 5610 5607 5605 5603 5599 5598 5598 5597 5595 5594 5593 5592 5588 5586 5585 5586 5587 5587 5587
5668 5665 5662 5659 5657 5655 5653 5650 5648 5646 5643 5641 5639 5637 5634 5631 5628 5626 5622 5619 5617 5614 5612 5610 5607 5605 5603 5597 5593 5591 5594 5594 5593 5592 5591 5590 5588 5584 5581 5580 5579 5579 5581
5664 5660 5657 5655 5653 5650 5649 5647 5645 5643 5641 5638 5636 5634 5631 5629 5626 5624 5621 5617 5614 5611 5609 5607 5605 5602 5598 5593 5590 5588 5589 5592 5591 5590 5588 5588 5587 5583 5582 5580 5577 5577 5575
5660 5657 5654 5651 5649 5647 5646 5644 5642 5640 5638 5636 5634 5632 5629 5627 5624 5621 5618 5615 5612 5609 5607 5605 5603 5600 5597 5592 5588 5586 5588 5590 5589 5588 5586 5584 5582 5580 5576 5577 5578 5578 5578
5657 5654 5651 5649 5646 5644 5642 5641 5639 5638 5636 5635 5633 5631 5628 5625 5621 5618 5615 5613 5610 5607 5605 5604 5602 5599 5596 5591 5587 5583 5589 5590 5589 5587 5585 5582 5579 5573 5570 5572 5574 5574 5574
5652 5649 5647 5645 5642 5640 5639 5637 5636 5635 5635 5634 5632 5630 5626 5623 5620 5617 5614 5612 5609 5607 5605 5603 5601 5598 5596 5591 5586 5582 5587 5588 5587 5586 5583 5577 5573 5568 5565 5567 5568 5569 5570
5646 5645 5642 5640 5639 5637 5636 5635 5634 5634 5634 5633 5630 5627 5624 5622 5619 5616 5614 5611 5609 5607 5604 5602 5600 5598 5595 5591 5586 5581 5582 5584 5584 5584 5582 5579 5570 5565 5562 5559 5562 5562 5561
5641 5640 5637 5636 5636 5635 5634 5633 5632 5633 5632 5631 5628 5625 5622 5621 5619 5615 5613 5610 5608 5606 5604 5602 5600 5600 5597 5591 5586 5581 5577 5575 5577 5578 5579 5575 5567 5562 5559 5559 5558 5556 5554
5638 5637 5635 5634 5633 5633 5633 5631 5631 5631 5630 5629 5626 5624 5621 5618 5616 5614 5612 5610 5608 5607 5606 5604 5601 5600 5598 5593 5586 5581 5577 5574 5573 5575 5571 5567 5563 5561 5561 5559 5556 5554 5557
5636 5635 5634 5632 5632 5631 5631 5631 5631 5630 5629 5627 5625 5623 5620 5617 5615 5613 5613 5611 5609 5607 5605 5603 5600 5598 5596 5593 5587 5583 5580 5576 5574 5573 5571 5566 5563 5561 5558 5558 5559 5558 5558
5634 5633 5633 5632 5631 5631 5631 5631 5631 5629 5628 5627 5625 5623 5621 5618 5614 5614 5612 5610 5607 5603 5599 5599 5597 5594 5591 5584 5574 5572 5574 5571 5570 5566 5569 5570 5569 5566 5564 5562 5559 5557 5555
5632 5632 5632 5632 5632 5632 5632 5632 5631 5629 5627 5626 5624 5624 5622 5619 5618 5616 5614 5608 5604 5600 5596 5591 5587 5588 5581 5576 5572 5568 5565 5563 5560 5561 5567 5566 5563 5561 5559 5556 5554 5552 5549